{"data":{"norad_id":66529,"epoch":"2026-09-20T16:45:39.674304Z","epoch_age_seconds":72012,"freshness":"FRESH","line1":"1 66529U 25265P   26263.69837586  .00012139  00000+0  45006-3 0  9992","line2":"2 66529  43.0041 256.9655 0001839 267.8997  92.1644 15.27569055 46932","mean_motion":15.27569055,"eccentricity":0.0001839,"inclination_deg":43.0041,"raan_deg":256.9655,"arg_perigee_deg":267.8997,"mean_anomaly_deg":92.1644,"bstar":0.00045006,"rev_number":4693,"period_min":94.267424132914,"perigee_km":481.82009135268,"apogee_km":484.34364765288,"semimajor_km":6861.2188695028,"source":"CELESTRAK","updated_at":"2026-09-21T09:00:35.965942Z"}}